CAPE
0 0 0 0 0 0 0 0 0 0 0 0 0 0 0 0 0 0 0 0 0 0 0 0 0 0 0 0 0 0 0 0 0 0 0 0 0 0 0 0 0 0 0 0 0
0 0 0 0 0 0 0 0 0 0 0 0 0 0 0 0 0 0 0 0 0 0 0 0 0 0 0 0 0 0 0 0 0 0 0 0 0 0 0 0 0 0 0 0 0
0 0 0 0 0 0 0 0 0 0 0 0 0 0 0 0 0 0 0 0 0 0 0 0 0 0 0 0 0 0 0 0 0 0 0 0 0 0 0 0 0 0 0 0 0
0 0 0 0 0 0 0 0 0 0 0 0 0 0 0 0 0 0 0 0 0 0 0 0 0 0 0 0 0 0 0 0 0 0 0 0 0 0 0 0 0 0 0 0 0
0 0 0 0 0 0 0 0 0 0 0 0 0 0 0 0 0 0 0 0 0 0 0 0 0 0 0 0 0 0 0 0 0 0 0 0 0 0 0 0 0 0 0 0 0
0 0 0 0 0 0 0 0 0 0 0 0 0 0 0 0 0 0 0 0 0 0 0 0 0 0 0 0 0 0 0 0 0 0 0 0 0 0 0 0 0 0 0 0 0
0 0 0 0 0 0 0 0 0 0 0 0 0 0 0 0 0 0 0 0 0 0 0 0 0 0 0 0 0 0 0 0 0 0 0 0 0 0 0 0 0 0 0 0 0
0 0 0 0 0 0 0 0 0 0 0 0 0 0 0 0 0 0 0 0 0 0 0 0 0 0 0 0 0 0 0 0 0 0 0 0 0 0 0 0 0 0 0 0 0
0 0 0 0 0 0 0 0 0 0 2 0 0 0 0 0 0 0 0 0 0 0 0 0 0 0 0 0 0 0 0 0 0 0 0 0 0 0 0 0 0 0 0 0 0
1 3 0 0 0 0 0 3 6 1 0 0 0 0 0 0 0 0 0 0 0 0 0 0 0 0 0 0 0 0 0 0 0 0 0 0 0 0 0 0 0 0 0 0 0
5 0 0 0 0 0 0 0 0 0 1 0 0 0 0 0 0 0 0 0 0 0 0 0 0 0 0 0 0 0 0 0 0 0 0 0 0 0 0 0 0 0 0 1 2
5 0 0 0 0 1 0 0 0 0 0 0 0 0 0 0 0 0 0 0 0 0 0 0 0 0 0 0 0 0 0 0 0 0 0 0 0 0 0 1 0 1 2 2 1
3 0 0 0 0 6 1 0 0 0 0 0 0 0 0 0 0 0 0 0 0 0 0 0 0 0 0 0 0 0 0 0 0 0 0 0 0 0 0 2 2 2 2 2 3
3 0 0 0 0 0 0 0 0 0 0 0 0 0 0 0 0 0 0 0 0 0 0 0 0 0 0 0 0 0 0 0 0 0 0 0 0 0 0 0 0 2 1 3 3
0 0 0 0 0 1 0 0 0 0 0 0 0 0 0 0 0 0 0 0 0 0 0 0 0 0 0 0 0 0 0 0 0 0 0 0 0 0 0 0 0 2 1 2 0
0 0 0 0 1 0 0 0 0 0 0 0 0 0 0 0 0 0 0 0 0 0 0 0 0 0 0 0 0 0 0 0 0 0 0 0 0 0 0 0 0 1 0 0 2
13 1 0 0 0 0 1 22 0 0 0 0 0 0 0 0 0 0 0 0 0 0 0 0 0 0 0 0 0 0 0 0 0 0 0 0 0 0 0 1 0 0 0 2 2
1 16 2 0 0 0 21 7 0 0 0 0 0 0 0 0 0 0 0 0 0 0 0 0 0 0 0 0 0 0 0 0 0 0 0 0 0 0 0 0 1 1 0 4 4
10 1 0 0 0 2 39 0 0 0 0 0 0 0 0 0 0 0 0 0 0 0 0 0 0 0 0 0 0 0 0 0 1 0 0 0 0 0 1 1 0 1 3 3 3
0 1 2 0 4 3 25 0 0 0 0 0 0 0 0 0 0 0 0 0 0 0 0 0 0 0 0 0 0 0 0 0 2 0 0 0 0 0 0 0 0 1 2 2 2
0 2 0 4 42 9 30 0 0 0 0 0 0 0 0 0 0 0 0 0 0 0 0 0 0 0 0 0 0 0 0 0 0 0 0 0 0 0 0 0 0 1 2 1 2
2 0 0 42 4 7 3 0 0 0 0 0 0 0 0 0 0 0 0 0 0 0 8 2 24 17 0 0 0 1 6 0 10 1 0 0 0 0 0 0 1 3 4 2 1
2 0 0 42 5 3 0 0 1 0 0 0 0 0 0 0 0 0 1 0 4 9 30 20 5 19 11 0 0 0 1 8 0 0 0 2 0 0 0 0 1 2 2 1 0
0 0 1 2 20 9 0 0 0 0 0 0 2 3 0 0 0 0 2 5 5 14 44 25 3 0 0 0 0 2 10 29 27 14 2 0 0 0 0 2 3 2 0 0 0
0 0 0 0 19 1 10 0 0 0 9 1 0 0 0 0 0 0 0 0 0 0 5 9 2 18 0 0 6 10 0 7 9 4 3 0 0 0 0 0 0 0 0 0 0
0 0 0 0 3 1 0 0 0 0 4 9 2 0 0 0 0 0 3 5 0 0 4 0 0 0 0 0 8 1 0 0 0 0 6 2 0 0 0 0 0 0 0 0 0
1 0 0 0 1 18 4 0 0 0 2 7 6 8 4 0 5 17 6 2 7 0 0 0 1 0 0 0 2 2 0 0 0 0 0 0 0 0 0 0 0 0 0 0 1
CIN
-0 -0 -0 -0 -0 -0 -0 -0 -0 -0 -0 -0 -0 -0 -0 -0 -0 -0 -0 -0 -0 -0 -0 -0 -0 -0 -0 -0 -0 -0 -0 -0 -0 -0 -0 -0 -0 -0 -0 -0 -0 -0 -0 -0 -0
-0 -0 -0 -0 -0 -0 -0 -0 -0 -0 -0 -0 -0 -0 -0 -0 -0 -0 -0 -0 -0 -0 -0 -0 -0 -0 -0 -0 -0 -0 -0 -0 -0 -0 -0 -0 -0 -0 -0 -0 -0 -0 -0 -0 -0
-0 -0 -0 -0 -0 -0 -0 -0 -0 -0 -0 -0 -0 -0 -0 -0 -0 -0 -0 -0 -0 -0 -0 -0 -0 -0 -0 -0 -0 -0 -0 -0 -0 -0 -0 -0 -0 -0 -0 -0 -0 -0 -0 -0 -0
-0 -0 -0 -0 -0 -0 -0 -0 -0 -0 -0 -0 -0 -0 -0 -0 -0 -0 -0 -0 -0 -0 -0 -0 -0 -0 -0 -0 -0 -0 -0 -0 -0 -0 -0 -0 -0 -0 -0 -0 -0 -0 -0 -0 -0
-0 -0 -0 -0 -0 -0 -0 -0 -0 -0 -0 -0 -0 -0 -0 -0 -0 -0 -0 -0 -0 -0 -0 -0 -0 -0 -0 -0 -0 -0 -0 -0 -0 -0 -0 -0 -0 -0 -0 -0 -0 -0 -0 -0 -0
-0 -0 -0 -0 -0 -0 -0 -0 -0 -0 -0 -0 -0 -0 -0 -0 -0 -0 -0 -0 -0 -0 -0 -0 -0 -0 -0 -0 -0 -0 -0 -0 -0 -0 -0 -0 -0 -0 -0 -0 -0 -0 -0 -0 -0
-0 -0 -0 -0 -0 -0 -0 -0 -0 -0 -0 -0 -0 -0 -0 -0 -0 -0 -0 -0 -0 -0 -0 -0 -0 -0 -0 -0 -0 -0 -0 -0 -0 -0 -0 -0 -0 -0 -0 -0 -0 -0 -0 -0 -0
-0 -0 -0 -0 -0 -0 -0 -0 -0 -0 -0 -1 -0 -0 -0 -0 -0 -0 -0 -0 -0 -0 -0 -0 -0 -0 -0 -0 -0 -0 -0 -0 -0 -0 -0 -0 -0 -0 -0 -0 -0 -0 -0 -0 -0
-0 -0 -0 -0 -0 -0 -0 -0 -0 -0 -3 -0 -0 -0 -0 -0 -0 -0 -0 -0 -0 -0 -0 -0 -0 -0 -0 -0 -0 -0 -0 -0 -0 -0 -0 -0 -0 -0 -0 -0 -0 -0 -0 -0 -0
-0 -5 -0 -0 -0 -0 -0 -3 -2 -4 -0 -0 -0 -0 -0 -0 -0 -0 -0 -0 -0 -0 -0 -0 -0 -0 -0 -0 -0 -0 -0 -0 -0 -0 -0 -0 -0 -0 -0 -0 -0 -0 -0 -0 -0
-2 -0 -0 -0 -0 -0 -0 -0 -0 -0 -0 -0 -0 -0 -0 -0 -0 -0 -0 -0 -0 -0 -0 -0 -0 -0 -0 -0 -0 -0 -0 -0 -0 -0 -0 -0 -0 -0 -0 -0 -0 -0 -0 -0 -0
-6 -0 -0 -0 -0 -0 -0 -0 -0 -0 -0 -0 -0 -0 -0 -0 -0 -0 -0 -0 -0 -0 -0 -0 -0 -0 -0 -0 -0 -0 -0 -0 -0 -0 -0 -0 -0 -0 -0 -0 -0 -0 -0 -0 -0
-9 -0 -0 -0 -0 -1 -1 -0 -0 -3 -0 -0 -0 -0 -0 -0 -0 -0 -0 -0 -0 -0 -0 -0 -0 -0 -0 -0 -0 -0 -0 -0 -0 -0 -0 -0 -0 -0 -0 -0 -0 -0 -0 -0 -0
-9 -0 -0 -0 -0 -0 -0 -0 -0 -0 -0 -0 -0 -0 -0 -0 -0 -0 -0 -0 -0 -0 -0 -0 -0 -0 -0 -0 -0 -0 -0 -0 -0 -0 -0 -0 -0 -0 -0 -0 -0 -0 -0 -0 -0
-0 -0 -0 -0 -0 -0 -0 -0 -0 -0 -0 -0 -0 -0 -0 -0 -0 -0 -0 -0 -0 -0 -0 -0 -0 -0 -0 -0 -0 -0 -0 -0 -0 -0 -0 -0 -0 -0 -0 -0 -0 -0 -0 -0 -0
-0 -0 -0 -0 -0 -0 -0 -0 -0 -0 -0 -0 -0 -0 -0 -0 -0 -0 -0 -0 -0 -0 -0 -0 -0 -0 -0 -0 -0 -0 -0 -0 -0 -0 -0 -0 -0 -0 -0 -0 -0 -0 -0 -0 -0
-15 -6 -0 -0 -0 -0 -23 -0 -0 -0 -0 -0 -0 -0 -0 -0 -0 -0 -0 -0 -0 -0 -0 -0 -0 -0 -0 -0 -0 -0 -0 -0 -0 -0 -0 -0 -0 -0 -0 -0 -0 -0 -0 -0 -0
-21 -12 -13 -0 -0 -0 -20 -1 -0 -0 -0 -0 -0 -0 -0 -0 -0 -0 -0 -0 -0 -0 -0 -0 -0 -0 -0 -0 -0 -0 -0 -0 -0 -0 -0 -0 -0 -0 -0 -0 -0 -0 -0 -0 -0
-13 -1 -0 -0 -0 -2 -7 -0 -0 -0 -0 -0 -0 -0 -0 -0 -0 -0 -0 -0 -0 -0 -0 -0 -0 -0 -0 -0 -0 -0 -0 -0 -0 -0 -0 -0 -0 -1 -0 -0 -0 -0 -0 -0 -0
-0 -0 -0 -0 -24 -8 -5 -0 -0 -0 -0 -0 -0 -0 -0 -0 -0 -0 -0 -0 -0 -0 -0 -0 -0 -0 -0 -0 -0 -0 -0 -0 -5 -0 -0 -0 -0 -0 -0 -0 -0 -0 -0 -0 -0
-0 -0 -0 -34 -7 -44 -1 -0 -0 -0 -0 -0 -0 -0 -0 -0 -0 -0 -0 -0 -0 -0 -0 -0 -0 -0 -0 -0 -0 -0 -0 -0 -2 -0 -3 -0 -0 -0 -0 -0 -0 -0 -0 -0 -0
-1 -0 -0 -0 -0 -0 -1 -0 -0 -0 -0 -0 -0 -0 -0 -0 -0 -0 -0 -0 -0 -0 -38 -89 -34 -13 -0 -0 -0 -1 -13 -11 -6 -0 -0 -0 -0 -0 -0 -0 -0 -0 -0 -0 -0
-0 -4 -0 -0 -0 -0 -0 -0 -1 -2 -0 -0 -0 -0 -0 -0 -0 -0 -17 -3 -67 -46 -23 -59 -14 -2 -5 -0 -0 -2 -8 -43 -3 -0 -0 -4 -0 -0 -0 -0 -0 -0 -0 -0 -0
-0 -0 -5 -19 -5 -21 -0 -0 -0 -0 -0 -0 -1 -1 -0 -0 -0 -0 -3 -22 -62 -58 -60 -40 -22 -1 -4 -0 -0 -8 -42 -42 -29 -7 -7 -0 -0 -0 -0 -0 -0 -0 -0 -0 -0
-0 -0 -0 -0 -0 -5 -8 -11 -0 -0 -1 -14 -0 -0 -0 -0 -0 -0 -0 -0 -0 -0 -30 -24 -3 -14 -1 -5 -21 -12 -0 -14 -16 -19 -6 -0 -0 -0 -0 -0 -0 -0 -0 -0 -0
-0 -0 -0 -0 -1 -0 -0 -0 -0 -1 -1 -3 -2 -0 -0 -0 -0 -0 -4 -8 -9 -0 -15 -0 -0 -0 -0 -0 -23 -2 -0 -0 -0 -0 -41 -68 -0 -0 -0 -0 -0 -0 -0 -0 -0
-0 -0 -0 -0 -0 -4 -0 -0 -0 -0 -2 -15 -9 -10 -8 -0 -24 -17 -13 -12 -8 -1 -0 -1 -2 -1 -0 -0 -8 -2 -0 -0 -0 -0 -0 -0 -0 -0 -0 -0 -0 -0 -0 -0 -0
Wind_Speed
23 24 25 26 27 27 28 28 30 30 31 32 32 32 32 35 35 27 24 17 15 19 16 13 15 16 14 14 14 13 15 16 16 15 16 17 21 24 24 23 25 19 23 28 31
25 25 25 26 26 27 28 29 30 31 31 31 31 30 31 33 30 26 19 16 16 16 13 13 14 15 14 15 15 14 15 14 17 17 18 22 24 27 27 31 24 23 28 29 32
25 26 26 26 26 27 29 29 30 31 31 30 29 28 31 29 27 19 17 12 15 14 13 13 13 15 15 16 15 15 18 16 20 20 24 26 27 25 27 27 29 32 33 30 27
26 27 27 27 27 27 28 29 29 30 30 29 27 27 29 23 26 15 13 14 16 15 13 14 15 18 17 17 16 19 17 17 23 24 28 30 28 29 28 30 28 31 29 29 32
26 26 27 27 27 27 27 27 28 30 28 28 24 25 22 24 22 15 16 16 15 14 15 15 18 18 20 17 18 19 20 20 24 30 31 30 33 31 31 29 25 26 31 34 35
27 27 26 26 27 26 26 26 27 28 27 26 22 22 22 30 16 13 16 14 14 15 16 16 17 15 18 20 20 20 23 26 25 29 30 28 27 24 24 25 28 31 34 35 38
26 25 25 25 26 26 26 26 27 26 26 25 20 21 25 26 15 18 17 13 13 15 16 15 15 15 16 20 20 23 30 29 26 22 23 26 26 21 22 30 36 37 37 39 36
26 24 25 25 25 26 25 25 25 23 24 20 19 22 28 18 19 19 16 17 15 13 13 13 15 15 18 19 24 27 28 32 24 26 24 27 30 25 26 38 41 43 42 39 31
25 24 25 24 24 24 23 24 23 21 19 17 23 23 30 21 21 17 12 16 13 13 12 13 14 17 18 23 29 28 33 32 31 25 27 30 32 29 39 39 38 39 39 34 29
25 24 25 23 22 22 21 20 18 19 18 20 21 25 22 21 15 13 10 10 15 8 13 16 19 21 22 23 34 32 32 30 31 27 35 37 35 35 35 36 34 34 33 28 29
23 23 24 23 21 18 16 19 23 26 24 23 21 20 20 18 16 14 11 11 12 15 19 18 22 24 23 22 25 28 32 34 32 31 34 31 39 36 31 27 29 31 26 27 28
22 22 23 22 20 17 17 23 23 24 34 26 27 28 25 21 22 18 11 18 17 20 17 21 27 23 22 21 23 27 32 34 33 26 32 34 40 27 23 23 25 26 26 28 28
22 21 20 20 18 18 20 21 18 20 32 31 25 27 25 21 25 21 13 17 20 21 19 24 25 20 18 20 24 25 27 30 32 31 29 33 30 22 22 23 25 25 27 27 28
21 22 20 18 22 21 23 22 19 22 34 32 26 26 20 18 26 19 14 17 21 24 21 24 22 20 19 22 20 28 22 24 28 32 34 29 38 26 27 28 27 28 26 26 28
20 21 21 17 20 21 20 15 14 17 40 23 20 12 15 18 18 18 15 19 21 18 17 21 19 19 21 22 17 24 19 24 27 29 33 30 34 30 25 30 28 27 26 26 25
20 18 18 19 20 18 17 9 11 26 40 25 19 18 16 17 16 12 12 13 14 18 21 21 18 18 19 18 16 17 21 25 27 28 36 30 29 31 27 27 26 26 25 24 24
19 18 18 16 22 15 12 12 28 37 25 28 24 18 17 17 16 15 13 16 19 23 26 24 24 21 19 22 19 17 22 32 34 31 34 27 29 33 25 25 25 24 22 22 22
19 18 22 20 16 14 16 22 40 33 29 21 19 19 22 18 21 18 17 21 19 20 23 24 30 19 18 20 22 20 22 27 35 33 32 26 31 31 23 21 21 19 18 18 19
16 20 23 23 20 17 22 35 38 31 24 27 20 23 24 22 21 21 21 23 20 17 25 25 28 18 18 17 14 21 23 22 30 29 34 31 31 29 21 20 18 17 15 16 17
23 24 26 23 17 20 28 37 35 27 24 22 29 25 28 25 24 23 23 23 25 20 20 23 29 21 18 16 17 19 15 23 22 33 36 33 33 32 23 19 14 12 12 13 15
23 30 22 18 18 25 39 39 33 26 23 27 27 28 27 27 26 27 27 24 22 22 19 22 26 26 18 20 20 20 23 23 24 26 35 39 34 24 20 14 10 8 8 10 13
24 33 17 16 26 29 38 34 29 27 29 29 27 27 27 25 27 26 28 25 20 21 23 22 25 30 28 25 22 22 23 21 28 29 26 30 35 25 19 11 8 7 7 10 13
28 27 20 22 35 34 33 38 33 28 29 28 31 28 27 30 32 27 26 23 22 21 21 18 24 32 30 27 23 24 21 20 23 26 31 33 34 25 17 10 8 7 8 10 13
19 31 26 27 28 31 34 38 37 33 38 34 31 29 29 31 30 31 29 26 23 23 23 23 27 29 33 25 20 23 23 22 23 31 33 33 38 28 19 15 11 9 9 11 13
22 26 27 34 35 32 31 30 35 36 31 28 34 34 31 36 36 37 36 37 35 30 28 27 36 32 33 31 30 32 32 29 29 30 33 38 35 29 19 13 13 10 9 11 13
28 23 24 30 30 34 35 40 40 35 32 32 33 29 32 36 33 33 30 31 32 25 26 27 34 32 37 33 33 36 35 32 32 34 35 35 38 24 18 16 13 12 9 10 11
24 23 23 28 29 33 34 34 36 34 33 35 32 32 34 35 32 34 34 34 32 31 29 30 32 32 39 33 32 38 33 33 34 31 31 35 31 22 19 15 14 14 11 9 9
Wind_Direction
301 303 305 307 309 311 314 315 316 318 319 320 322 322 323 320 318 329 325 338 339 336 349 2 4 5 10 3 5 13 348 339 343 346 343 326 316 310 312 308 307 311 307 302 305
299 302 304 306 309 311 312 314 314 316 317 319 321 323 323 321 323 322 334 338 338 344 355 348 354 4 352 350 351 348 340 343 332 331 330 318 317 310 308 293 307 309 309 307 302
297 299 302 305 307 309 310 312 313 314 316 318 321 322 322 325 321 328 343 5 356 1 5 359 357 353 336 339 338 342 329 331 320 318 314 313 315 318 312 309 305 301 306 310 315
296 297 299 301 304 307 310 311 313 314 315 316 319 322 321 328 309 335 343 340 343 352 1 347 341 328 325 324 331 323 332 329 316 313 310 308 311 310 310 305 312 309 313 316 311
295 297 298 299 302 305 308 310 311 312 314 317 320 321 325 313 308 326 328 329 337 344 339 333 325 325 316 322 324 318 323 328 320 308 306 309 305 305 305 308 315 316 313 311 311
293 295 297 298 300 303 306 309 311 311 312 316 320 322 316 300 324 330 322 328 336 330 328 328 325 332 322 317 316 324 321 319 322 316 312 311 311 313 312 316 312 314 311 313 311
291 295 296 297 298 301 304 307 309 311 311 313 319 320 306 299 322 314 317 323 328 326 318 325 330 321 327 320 322 320 313 318 322 326 322 318 312 315 319 313 305 308 312 311 314
287 293 295 297 299 300 304 306 308 312 313 317 320 314 298 315 316 308 306 308 312 320 323 326 327 324 320 322 318 315 315 311 323 324 326 319 307 314 320 312 307 306 306 312 320
287 289 292 295 300 301 304 308 309 313 315 319 310 307 296 312 306 312 308 307 316 307 314 328 322 316 319 311 309 312 307 311 313 324 319 319 308 313 309 313 312 311 311 316 322
285 287 289 295 299 300 303 309 318 316 314 314 308 301 299 300 314 321 324 319 317 323 312 309 311 306 310 306 302 305 308 310 310 315 312 309 308 312 314 315 316 317 319 325 325
282 286 287 292 296 298 302 305 300 297 295 288 296 300 306 312 308 305 312 316 319 307 297 302 297 298 302 302 306 307 306 305 309 314 311 312 309 314 319 326 325 325 330 330 332
277 284 285 288 292 292 293 292 294 301 292 290 284 285 289 302 291 291 299 295 296 294 301 301 294 298 307 306 305 305 305 305 310 316 314 314 310 320 328 331 333 334 333 333 332
272 278 281 286 287 286 284 289 303 308 293 292 288 284 283 280 282 282 279 293 293 292 291 293 304 313 299 303 304 305 305 307 307 314 317 316 315 315 327 333 335 338 338 337 335
269 272 277 281 281 283 281 282 290 311 289 289 288 289 284 280 282 278 271 289 291 290 293 297 300 304 304 303 305 304 309 309 311 313 309 320 307 306 313 320 327 332 336 336 335
264 267 271 271 281 278 285 283 288 302 280 294 289 300 293 276 293 293 276 283 284 291 297 303 307 305 300 301 306 309 315 311 311 309 310 309 308 309 313 314 322 328 334 336 337
261 264 267 271 279 281 291 273 287 276 273 285 294 289 284 283 294 302 297 291 293 294 298 298 311 310 310 314 310 320 315 315 313 310 303 306 304 308 312 317 323 327 332 336 339
255 259 266 268 271 266 276 266 266 262 284 279 282 285 280 278 288 291 278 277 285 288 289 297 293 301 304 304 312 304 308 306 306 304 303 313 306 305 312 319 324 327 332 339 343
249 256 266 267 271 262 257 258 259 270 266 285 288 278 276 281 282 287 283 279 283 292 298 293 298 292 296 286 301 295 295 300 303 304 308 312 307 313 321 324 328 332 339 347 351
248 257 261 260 259 257 246 252 258 266 274 266 277 276 277 283 290 284 282 283 282 280 291 297 299 307 309 309 292 304 297 299 300 303 303 304 307 313 317 320 323 326 334 341 352
250 257 260 253 248 246 247 253 259 262 272 274 267 276 274 278 279 280 283 292 287 277 287 299 297 300 304 312 307 302 312 305 301 303 302 306 307 308 311 313 316 319 327 339 347
248 256 266 237 236 240 244 253 259 265 272 273 272 276 279 281 280 281 286 290 292 292 278 289 292 298 298 291 292 298 297 302 305 301 303 305 307 319 311 308 300 309 327 338 342
239 250 256 215 238 242 243 249 263 268 263 274 277 274 276 281 284 283 283 286 303 294 287 284 295 289 285 299 291 291 292 290 295 303 302 305 305 323 318 305 296 302 320 334 337
241 249 252 236 243 242 250 252 257 265 265 269 271 272 277 277 279 281 283 291 294 295 298 294 291 291 294 297 295 291 290 291 294 300 292 299 306 324 323 308 296 295 311 324 328
246 245 248 245 249 246 248 253 255 262 264 268 275 274 276 273 275 279 281 286 292 294 298 294 287 286 286 299 307 298 292 289 288 294 297 291 301 305 305 300 287 289 306 317 323
248 255 249 242 243 247 248 258 255 261 264 268 268 267 271 272 273 275 279 280 284 286 288 286 284 286 285 287 290 291 291 290 286 288 291 297 299 300 290 277 279 290 306 313 318
244 256 256 253 247 243 249 253 256 260 260 266 265 270 265 268 272 278 280 281 282 288 287 287 285 288 285 288 287 287 287 287 288 290 291 293 294 302 293 290 283 280 288 306 313
250 256 256 255 247 243 246 251 257 257 263 263 266 270 270 273 278 279 280 282 282 283 285 285 285 284 284 291 290 286 283 284 288 289 292 290 295 299 292 275 263 273 285 297 314